GW1546 Weather Reports


Display with metric or nautical units.
time (UTC)temp
F
wind
direction
speed
MPH
gust
MPH
rain 1hr
in
rain 24hr
in
rain mn
in
humidity
%
barometer
mb
20260506002745 65 173 0.0 1.0 0.00 0.00 0.00 74
20260506002128 66 161 1.0 1.0 0.00 0.00 0.00 74
20260506001517 66 182 0.0 1.0 0.00 0.00 0.00 76
20260506000919 66 184 0.0 0.0 0.00 0.00 0.00 73
20260506000349 67 184 0.0 0.0 0.00 0.00 0.00 73
20260505235739 67 196 0.0 0.0 0.00 0.00 0.00 72
20260505235119 67 194 0.0 1.0 0.00 0.00 0.00 72
20260505234527 68 196 0.0 0.0 0.00 0.00 0.00 71
20260505233341 69 196 0.0 0.0 0.00 0.00 0.00 68
20260505232713 69 196 0.0 1.0 0.00 0.00 0.00 67
20260505232150 70 114 0.0 1.0 0.00 0.00 0.00 66
20260505231552 70 221 0.0 1.0 0.00 0.00 0.00 64
20260505230932 70 200 0.0 1.0 0.00 0.00 0.00 64
20260505230345 71 236 1.0 2.0 0.00 0.00 0.00 63
20260505225114 73 202 1.0 2.0 0.00 0.00 0.00 60
20260505224513 73 183 1.0 2.0 0.00 0.00 0.00 51
20260505223921 73 184 0.0 1.0 0.00 0.00 0.00 53
20260505223312 74 53 0.0 1.0 0.00 0.00 0.00 52
20260505222747 77 181 0.0 1.0 0.00 0.00 0.00 49
20260505222114 76 258 1.0 3.0 0.00 0.00 0.00 40
20260505221516 78 91 2.0 2.0 0.00 0.00 0.00 41
20260505220313 78 175 0.0 1.0 0.00 0.00 0.00 48
20260505215741 82 116 2.0 3.0 0.00 0.00 0.00 38
20260505215149 80 49 0.0 2.0 0.00 0.00 0.00 39
20260505214545 78 189 0.0 2.0 0.00 0.00 0.00 47
20260505213941 77 71 0.0 2.0 0.00 0.00 0.00 43
20260505213316 77 103 1.0 2.0 0.00 0.00 0.00 50
20260505212742 77 170 0.0 1.0 0.00 0.00 0.00 40
20260505212125 77 325 0.0 2.0 0.00 0.00 0.00 40
20260505211527 78 39 1.0 1.0 0.00 0.00 0.00 42
20260505210344 79 292 6.0 7.0 0.00 0.00 0.00 40
20260505205752 79 16 2.0 4.0 0.00 0.00 0.00 37
20260505205138 79 154 1.0 4.0 0.00 0.00 0.00 39 982.3
20260505204543 78 317 6.0 7.0 0.00 0.00 0.00 39
20260505203317 77 175 3.0 7.0 0.00 0.00 0.00 38 982.3
20260505202754 78 300 4.0 6.0 0.00 0.00 0.00 39 982.3
20260505202112 77 63 3.0 6.0 0.00 0.00 0.00 39 982.3
20260505201533 77 53 4.0 4.0 0.00 0.00 0.00 39 982.3
20260505200940 77 24 0.0 2.0 0.00 0.00 0.00 42 982.7
20260505195709 77 336 5.0 11.0 0.00 0.00 0.00 38 982.7
20260505194543 78 359 3.0 6.0 0.00 0.00 0.00 38 983.0
20260505193940 78 307 1.0 1.0 0.00 0.00 0.00 42 983.0
20260505193332 77 314 1.0 3.0 0.00 0.00 0.00 36 983.0
20260505192115 77 346 4.0 9.0 0.00 0.00 0.00 36 983.4
20260505190932 78 310 1.0 3.0 0.00 0.00 0.00 41 983.0
20260505190336 78 0 1.0 2.0 0.00 0.00 0.00 38 983.4
20260505185752 78 308 2.0 3.0 0.00 0.00 0.00 43 983.4
20260505185140 78 12 4.0 6.0 0.00 0.00 0.00 39 983.7
20260505184551 78 161 2.0 6.0 0.00 0.00 0.00 40 983.7
20260505183341 77 223 2.0 3.0 0.00 0.00 0.00 41 983.7
20260505181514 76 234 2.0 4.0 0.00 0.00 0.00 41 984.0
20260505180926 76 171 4.0 8.0 0.00 0.00 0.00 43 984.0
20260505180313 76 40 1.0 4.0 0.00 0.00 0.00 46 984.4
20260505175713 76 69 4.0 8.0 0.00 0.00 0.00 41 984.4
20260505175125 76 96 3.0 9.0 0.00 0.00 0.00 43 984.4
20260505174525 76 285 0.0 4.0 0.00 0.00 0.00 41 984.4
20260505173933 76 220 1.0 3.0 0.00 0.00 0.00 42 984.4
20260505173350 75 29 2.0 4.0 0.00 0.00 0.00 47 984.4
20260505172720 75 326 4.0 7.0 0.00 0.00 0.00 41 984.7
20260505172131 74 320 4.0 9.0 0.00 0.00 0.00 44 984.7
20260505171517 74 334 3.0 7.0 0.00 0.00 0.00 43 984.4
20260505170939 74 353 8.0 11.0 0.00 0.00 0.00 45 984.4
20260505170328 74 357 6.0 14.0 0.00 0.00 0.00 43 984.7
20260505165708 75 311 6.0 7.0 0.00 0.00 0.00 45 984.4
20260505165110 76 167 3.0 9.0 0.00 0.00 0.00 45 984.4
20260505164512 76 236 2.0 3.0 0.00 0.00 0.00 42 984.7
20260505163952 74 332 0.0 6.0 0.00 0.00 0.00 47 984.7
20260505163316 74 77 2.0 4.0 0.00 0.00 0.00 45 985.1
20260505162718 75 215 4.0 8.0 0.00 0.00 0.00 44 985.1
20260505162148 75 290 3.0 10.0 0.00 0.00 0.00 44 985.1
20260505161535 75 352 4.0 7.0 0.00 0.00 0.00 43 985.1
20260505160921 75 358 2.0 6.0 0.00 0.00 0.00 48 985.1
20260505160344 74 22 3.0 6.0 0.00 0.00 0.00 46 985.1
20260505153319 74 337 0.0 3.0 0.00 0.00 0.00 51 985.4
20260505152748 76 263 4.0 6.0 0.00 0.00 0.00 42 985.1
20260505152114 75 117 0.0 1.0 0.00 0.00 0.00 44 985.1
20260505151546 74 63 3.0 3.0 0.00 0.00 0.00 44 985.7
20260505150942 74 100 3.0 8.0 0.00 0.00 0.00 47 985.4
20260505150331 74 0 2.0 3.0 0.00 0.00 0.00 45 985.4
20260505140322 70 80 2.0 7.0 0.00 0.00 0.00 59 985.4
20260505124537 55 131 1.0 3.0 0.00 0.00 0.00 90 986.1
20260505123916 54 69 0.0 2.0 0.00 0.00 0.00 91 986.1
20260505123326 54 82 1.0 2.0 0.00 0.00 0.00 92 985.7
20260505122715 53 78 2.0 3.0 0.00 0.00 0.00 93 986.1
20260505122122 52 107 1.0 2.0 0.00 0.00 0.00 94 986.1
20260505120935 51 86 1.0 2.0 0.00 0.00 0.00 96 985.7
20260505120316 51 30 0.0 2.0 0.00 0.00 0.00 96 985.7
20260505115721 50 62 1.0 3.0 0.00 0.00 0.00 97 985.7
20260505115152 50 177 0.0 1.0 0.00 0.00 0.00 98 985.7
20260505114514 50 104 2.0 3.0 0.00 0.00 0.00 98 985.7
20260505113925 50 98 1.0 2.0 0.00 0.00 0.00 98 985.7
20260505113317 49 75 0.0 2.0 0.00 0.00 0.00 98 985.4
20260505112135 49 81 0.0 1.0 0.00 0.00 0.00 99 985.7
20260505111538 49 95 0.0 1.0 0.00 0.00 0.00 99 985.4
20260505110926 49 77 0.0 1.0 0.00 0.00 0.00 99 985.7
20260505110324 49 118 1.0 3.0 0.00 0.00 0.00 99 985.7
20260505101527 49 110 1.0 2.0 0.00 0.00 0.00 99 985.1
20260505100942 49 40 0.0 1.0 0.00 0.00 0.00 99 985.1
20260505100313 49 286 0.0 1.0 0.00 0.00 0.00 99 985.1
20260505095740 49 263 0.0 1.0 0.00 0.00 0.00 99 985.1
20260505095146 49 59 0.0 2.0 0.00 0.00 0.00 99 984.7
20260505094528 49 42 1.0 2.0 0.00 0.00 0.00 99 984.7
20260505093910 49 122 1.0 1.0 0.00 0.00 0.00 99 984.7
20260505093331 49 117 1.0 2.0 0.00 0.00 0.00 99 984.7
20260505092734 49 92 0.0 1.0 0.00 0.00 0.00 99 984.4
20260505092112 49 47 1.0 1.0 0.00 0.00 0.00 99 984.4
20260505091543 49 109 1.0 1.0 0.00 0.00 0.00 99 984.4
20260505090932 49 23 0.0 2.0 0.00 0.00 0.00 99 984.4
20260505090330 49 231 0.0 2.0 0.00 0.00 0.00 98 984.7
20260505085725 49 88 1.0 2.0 0.00 0.00 0.00 99 984.4
20260505085123 49 28 1.0 1.0 0.00 0.00 0.00 99 984.4
20260505084548 49 18 0.0 1.0 0.00 0.00 0.00 99 984.0
20260505083930 49 36 1.0 2.0 0.00 0.00 0.00 99 984.4
20260505082713 50 98 1.0 2.0 0.00 0.00 0.00 99 984.4
20260505081509 49 118 0.0 1.0 0.00 0.00 0.00 99 984.4
20260505080952 50 331 0.0 1.0 0.00 0.00 0.00 99 984.0
20260505080308 50 208 0.0 2.0 0.00 0.00 0.00 98 984.0
20260505075729 50 81 0.0 1.0 0.00 0.00 0.00 98 984.0
20260505075111 50 180 1.0 1.0 0.00 0.00 0.00 98 984.0
20260505073939 50 21 0.0 2.0 0.00 0.00 0.00 98 984.0
20260505073351 50 61 1.0 2.0 0.00 0.00 0.00 98 984.0
20260505072150 50 99 0.0 0.0 0.00 0.00 0.00 98 984.0
20260505070926 50 107 2.0 2.0 0.00 0.00 0.00 98 984.0
20260505070310 50 72 0.0 2.0 0.00 0.00 0.00 98 984.0
20260505065740 50 97 0.0 1.0 0.00 0.00 0.00 98 984.0
20260505064531 50 104 0.0 1.0 0.00 0.00 0.00 98 984.0
20260505063912 50 95 1.0 1.0 0.00 0.00 0.00 98 984.0
20260505063352 50 144 0.0 1.0 0.00 0.00 0.00 98 984.0
20260505062752 50 73 1.0 3.0 0.00 0.00 0.00 99 984.0
20260505062120 50 84 0.0 1.0 0.00 0.00 0.00 99 984.0
20260505060932 50 81 0.0 0.0 0.00 0.00 0.00 98 984.0
20260505060347 50 114 0.0 0.0 0.00 0.00 0.00 98 984.0
20260505055730 51 206 0.0 0.0 0.00 0.00 0.00 97 984.0
20260505055120 51 83 0.0 1.0 0.00 0.00 0.00 98 983.7
20260505054545 51 83 0.0 0.0 0.00 0.00 0.00 97 983.7
20260505053930 51 252 1.0 1.0 0.00 0.00 0.00 97 983.7
20260505053309 52 101 0.0 1.0 0.00 0.00 0.00 97 984.0
20260505051537 52 93 0.0 1.0 0.00 0.00 0.00 97 983.7
20260505050326 52 228 0.0 0.0 0.00 0.00 0.00 97 983.4
20260505041526 53 51 0.0 0.0 0.00 0.00 0.00 96 983.0
20260505040919 53 107 1.0 1.0 0.00 0.00 0.00 96 983.4
20260505035138 53 175 0.0 0.0 0.00 0.00 0.00 95 983.0
20260505034556 54 255 0.0 1.0 0.00 0.00 0.00 94 982.7
20260505033913 54 329 0.0 0.0 0.00 0.00 0.00 94 983.0
20260505033320 54 233 0.0 1.0 0.00 0.00 0.00 94 983.0
20260505032719 54 168 0.0 1.0 0.00 0.00 0.00 94 983.0
20260505032128 54 188 1.0 2.0 0.00 0.00 0.00 93 983.0
20260505031514 55 183 1.0 1.0 0.00 0.00 0.00 93 982.7
20260505030941 54 93 0.0 1.0 0.00 0.00 0.00 94 982.3
20260505030344 55 261 0.0 1.0 0.00 0.00 0.00 93 982.7
20260505025743 55 30 1.0 2.0 0.00 0.00 0.00 94 983.0
20260505025129 55 212 0.0 1.0 0.00 0.00 0.00 93 982.7
20260505024538 55 205 0.0 0.0 0.00 0.00 0.00 93 983.0
20260505022123 56 215 0.0 0.0 0.00 0.00 0.00 92 982.7
20260505021512 56 214 0.0 1.0 0.00 0.00 0.00 91 982.7
20260505020926 56 147 1.0 1.0 0.00 0.00 0.00 92 982.7
20260505020317 57 193 1.0 1.0 0.00 0.00 0.00 91 983.0
20260505015154 57 207 0.0 0.0 0.00 0.00 0.00 90 982.7
20260505014530 57 207 0.0 0.0 0.00 0.00 0.00 89 982.7
20260505013918 58 217 0.0 2.0 0.00 0.00 0.00 88 982.7
20260505013318 58 206 0.0 0.0 0.00 0.00 0.00 88 982.7
20260505012711 58 201 0.0 0.0 0.00 0.00 0.00 88 982.7
20260505012147 59 201 0.0 0.0 0.00 0.00 0.00 87 982.3
20260505011536 59 201 0.0 1.0 0.00 0.00 0.00 87 982.3
20260505010914 59 202 0.0 1.0 0.00 0.00 0.00 86 982.3
20260505010331 60 209 1.0 2.0 0.00 0.00 0.00 85 982.3
20260505005751 60 213 0.0 1.0 0.00 0.00 0.00 85 982.3
20260505005121 60 195 1.0 1.0 0.00 0.00 0.00 84 982.7
20260505004534 61 222 0.0 1.0 0.00 0.00 0.00 83 982.3
20260505003929 62 194 0.0 1.0 0.00 0.00 0.00 82 982.3
20260505003354 62 192 1.0 1.0 0.00 0.00 0.00 81 982.3